contact:dominique.lefevre@mio.osupytheas.fr, maurice.libes@osupytheas.fr, didier.mallarino@osupytheas.fr
Project:EMSO http://www.emso-fr.org/EMSO-France
Depth: 2436.0 m
Title:EMSO Ligure Ouest : Data MII capteur MICROCAT
DateTime_Computer,Latitude,Longitude,Temperature,Conductivity,Pressure,DateTime_Instrument
DateTime_Computer,Latitude,Longitude,degC,S m-1,dbar,DateTime_Instrument
2023-10-26T00:01:55Z,42.805,6.029,13.3046,4.60127,2470.693,2023-10-26T02:04:20Z
2023-10-26T00:04:58Z,42.805,6.029,13.3043,4.60126,2470.684,2023-10-26T02:07:23Z
2023-10-26T00:08:01Z,42.805,6.029,13.3054,4.60141,2470.717,2023-10-26T02:10:26Z
2023-10-26T00:11:04Z,42.805,6.029,13.3054,4.60142,2470.67,2023-10-26T02:13:29Z
2023-10-26T00:14:07Z,42.805,6.029,13.3049,4.60141,2470.74,2023-10-26T02:16:32Z
2023-10-26T00:17:10Z,42.805,6.029,13.3052,4.60145,2470.679,2023-10-26T02:19:35Z
2023-10-26T00:20:13Z,42.805,6.029,13.3049,4.60138,2470.67,2023-10-26T02:22:38Z
2023-10-26T00:23:16Z,42.805,6.029,13.3060,4.60140,2470.693,2023-10-26T02:25:42Z
2023-10-26T00:26:19Z,42.805,6.029,13.3051,4.60140,2470.693,2023-10-26T02:28:45Z
2023-10-26T00:29:22Z,42.805,6.029,13.3043,4.60139,2470.717,2023-10-26T02:31:48Z
2023-10-26T00:32:25Z,42.805,6.029,13.3051,4.60144,2470.693,2023-10-26T02:34:51Z
2023-10-26T00:35:28Z,42.805,6.029,13.3046,4.60134,2470.73,2023-10-26T02:37:54Z
2023-10-26T00:38:32Z,42.805,6.029,13.3047,4.60140,2470.707,2023-10-26T02:40:57Z
2023-10-26T00:41:35Z,42.805,6.029,13.3050,4.60146,2470.693,2023-10-26T02:44:00Z
2023-10-26T00:44:38Z,42.805,6.029,13.3048,4.60147,2470.74,2023-10-26T02:47:03Z
2023-10-26T00:47:41Z,42.805,6.029,13.3047,4.60143,2470.73,2023-10-26T02:50:06Z
2023-10-26T00:50:44Z,42.805,6.029,13.3051,4.60138,2470.717,2023-10-26T02:53:09Z
2023-10-26T00:53:47Z,42.805,6.029,13.3050,4.60148,2470.717,2023-10-26T02:56:12Z
2023-10-26T00:56:50Z,42.805,6.029,13.3056,4.60141,2470.74,2023-10-26T02:59:15Z
2023-10-26T00:59:53Z,42.805,6.029,13.3051,4.60140,2470.717,2023-10-26T03:02:19Z
2023-10-26T01:02:56Z,42.805,6.029,13.3047,4.60146,2470.717,2023-10-26T03:05:22Z
2023-10-26T01:05:59Z,42.805,6.029,13.3052,4.60131,2470.693,2023-10-26T03:08:25Z
2023-10-26T01:09:02Z,42.805,6.029,13.3050,4.60140,2470.73,2023-10-26T03:11:28Z
2023-10-26T01:12:05Z,42.805,6.029,13.3048,4.60137,2470.74,2023-10-26T03:14:31Z
2023-10-26T01:15:08Z,42.805,6.029,13.3054,4.60135,2470.74,2023-10-26T03:17:34Z
2023-10-26T01:18:12Z,42.805,6.029,13.3048,4.60140,2470.717,2023-10-26T03:20:37Z
2023-10-26T01:21:15Z,42.805,6.029,13.3053,4.60143,2470.754,2023-10-26T03:23:40Z
2023-10-26T01:24:18Z,42.805,6.029,13.3051,4.60137,2470.777,2023-10-26T03:26:43Z
2023-10-26T01:27:21Z,42.805,6.029,13.3051,4.60137,2470.693,2023-10-26T03:29:46Z
2023-10-26T01:30:24Z,42.805,6.029,13.3046,4.60132,2470.717,2023-10-26T03:32:49Z
2023-10-26T01:33:27Z,42.805,6.029,13.3054,4.60139,2470.693,2023-10-26T03:35:52Z
2023-10-26T01:36:30Z,42.805,6.029,13.3047,4.60132,2470.74,2023-10-26T03:38:55Z
2023-10-26T01:39:33Z,42.805,6.029,13.3051,4.60136,2470.73,2023-10-26T03:41:59Z
2023-10-26T01:42:36Z,42.805,6.029,13.3046,4.60135,2470.73,2023-10-26T03:45:02Z
2023-10-26T01:45:39Z,42.805,6.029,13.3046,4.60136,2470.717,2023-10-26T03:48:05Z
2023-10-26T01:48:42Z,42.805,6.029,13.3049,4.60141,2470.754,2023-10-26T03:51:08Z
2023-10-26T01:51:45Z,42.805,6.029,13.3044,4.60131,2470.74,2023-10-26T03:54:11Z
2023-10-26T01:54:48Z,42.805,6.029,13.3043,4.60129,2470.763,2023-10-26T03:57:14Z
2023-10-26T01:57:52Z,42.805,6.029,13.3040,4.60131,2470.754,2023-10-26T04:00:17Z
2023-10-26T02:00:55Z,42.805,6.029,13.3048,4.60130,2470.754,2023-10-26T04:03:20Z
2023-10-26T02:03:58Z,42.805,6.029,13.3045,4.60125,2470.754,2023-10-26T04:06:23Z
2023-10-26T02:07:01Z,42.805,6.029,13.3044,4.60144,2470.763,2023-10-26T04:09:26Z
2023-10-26T02:10:04Z,42.805,6.029,13.3041,4.60136,2470.754,2023-10-26T04:12:29Z
2023-10-26T02:13:07Z,42.805,6.029,13.3042,4.60125,2470.777,2023-10-26T04:15:32Z
2023-10-26T02:16:10Z,42.805,6.029,13.3048,4.60126,2470.763,2023-10-26T04:18:35Z
2023-10-26T02:19:13Z,42.805,6.029,13.3046,4.60127,2470.777,2023-10-26T04:21:39Z
2023-10-26T02:22:16Z,42.805,6.029,13.3051,4.60143,2470.763,2023-10-26T04:24:42Z
2023-10-26T02:25:19Z,42.805,6.029,13.3049,4.60140,2470.763,2023-10-26T04:27:45Z
2023-10-26T02:28:22Z,42.805,6.029,13.3051,4.60133,2470.787,2023-10-26T04:30:48Z
2023-10-26T02:31:25Z,42.805,6.029,13.3046,4.60123,2470.763,2023-10-26T04:33:51Z
2023-10-26T02:34:29Z,42.805,6.029,13.3046,4.60134,2470.754,2023-10-26T04:36:54Z
2023-10-26T02:37:32Z,42.805,6.029,13.3046,4.60129,2470.763,2023-10-26T04:39:57Z
2023-10-26T02:40:35Z,42.805,6.029,13.3043,4.60136,2470.787,2023-10-26T04:43:00Z
2023-10-26T02:43:38Z,42.805,6.029,13.3044,4.60135,2470.8,2023-10-26T04:46:03Z
2023-10-26T02:46:41Z,42.805,6.029,13.3048,4.60132,2470.787,2023-10-26T04:49:06Z
2023-10-26T02:49:44Z,42.805,6.029,13.3043,4.60140,2470.787,2023-10-26T04:52:09Z
2023-10-26T02:52:47Z,42.805,6.029,13.3052,4.60130,2470.777,2023-10-26T04:55:12Z
2023-10-26T02:55:50Z,42.805,6.029,13.3043,4.60123,2470.787,2023-10-26T04:58:16Z
2023-10-26T02:58:53Z,42.805,6.029,13.3045,4.60122,2470.81,2023-10-26T05:01:19Z
2023-10-26T03:01:56Z,42.805,6.029,13.3048,4.60128,2470.777,2023-10-26T05:04:22Z
2023-10-26T03:04:59Z,42.805,6.029,13.3039,4.60126,2470.833,2023-10-26T05:07:25Z
2023-10-26T03:08:02Z,42.805,6.029,13.3052,4.60140,2470.81,2023-10-26T05:10:28Z
2023-10-26T03:11:05Z,42.805,6.029,13.3053,4.60149,2470.787,2023-10-26T05:13:31Z
2023-10-26T03:14:09Z,42.805,6.029,13.3044,4.60132,2470.787,2023-10-26T05:16:34Z
2023-10-26T03:17:12Z,42.805,6.029,13.3052,4.60135,2470.763,2023-10-26T05:19:37Z
2023-10-26T03:20:15Z,42.805,6.029,13.3057,4.60141,2470.763,2023-10-26T05:22:40Z
2023-10-26T03:23:18Z,42.805,6.029,13.3048,4.60127,2470.81,2023-10-26T05:25:43Z
2023-10-26T03:26:21Z,42.805,6.029,13.3043,4.60139,2470.787,2023-10-26T05:28:46Z
2023-10-26T03:29:24Z,42.805,6.029,13.3048,4.60131,2470.833,2023-10-26T05:31:49Z
2023-10-26T03:32:27Z,42.805,6.029,13.3045,4.60120,2470.833,2023-10-26T05:34:52Z
2023-10-26T03:35:30Z,42.805,6.029,13.3051,4.60129,2470.833,2023-10-26T05:37:56Z
2023-10-26T03:38:33Z,42.805,6.029,13.3045,4.60122,2470.847,2023-10-26T05:40:59Z
2023-10-26T03:41:36Z,42.805,6.029,13.3042,4.60122,2470.833,2023-10-26T05:44:02Z
2023-10-26T03:44:39Z,42.805,6.029,13.3045,4.60132,2470.81,2023-10-26T05:47:05Z
2023-10-26T03:47:42Z,42.805,6.029,13.3045,4.60127,2470.833,2023-10-26T05:50:08Z
2023-10-26T03:50:45Z,42.805,6.029,13.3043,4.60125,2470.81,2023-10-26T05:53:11Z
2023-10-26T03:53:49Z,42.805,6.029,13.3048,4.60135,2470.81,2023-10-26T05:56:14Z
2023-10-26T03:56:52Z,42.805,6.029,13.3051,4.60145,2470.833,2023-10-26T05:59:17Z
2023-10-26T03:59:55Z,42.805,6.029,13.3046,4.60133,2470.847,2023-10-26T06:02:20Z
2023-10-26T04:02:58Z,42.805,6.029,13.3048,4.60137,2470.847,2023-10-26T06:05:23Z
2023-10-26T04:06:01Z,42.805,6.029,13.3050,4.60125,2470.81,2023-10-26T06:08:26Z
2023-10-26T04:09:04Z,42.805,6.029,13.3043,4.60134,2470.833,2023-10-26T06:11:29Z
2023-10-26T04:12:07Z,42.805,6.029,13.3048,4.60132,2470.847,2023-10-26T06:14:32Z
2023-10-26T04:15:10Z,42.805,6.029,13.3048,4.60130,2470.81,2023-10-26T06:17:36Z
2023-10-26T04:18:13Z,42.805,6.029,13.3047,4.60129,2470.88,2023-10-26T06:20:39Z
2023-10-26T04:21:16Z,42.805,6.029,13.3042,4.60132,2470.833,2023-10-26T06:23:42Z
2023-10-26T04:24:19Z,42.805,6.029,13.3047,4.60140,2470.833,2023-10-26T06:26:45Z
2023-10-26T04:27:22Z,42.805,6.029,13.3041,4.60125,2470.833,2023-10-26T06:29:48Z
2023-10-26T04:30:26Z,42.805,6.029,13.3044,4.60124,2470.847,2023-10-26T06:32:51Z
2023-10-26T04:33:29Z,42.805,6.029,13.3049,4.60138,2470.824,2023-10-26T06:35:54Z
2023-10-26T04:36:32Z,42.805,6.029,13.3048,4.60127,2470.81,2023-10-26T06:38:57Z
2023-10-26T04:39:35Z,42.805,6.029,13.3047,4.60126,2470.847,2023-10-26T06:42:00Z
2023-10-26T04:42:38Z,42.805,6.029,13.3048,4.60138,2470.824,2023-10-26T06:45:03Z
2023-10-26T04:45:41Z,42.805,6.029,13.3046,4.60128,2470.857,2023-10-26T06:48:06Z
2023-10-26T04:48:44Z,42.805,6.029,13.3049,4.60140,2470.88,2023-10-26T06:51:09Z
2023-10-26T04:51:47Z,42.805,6.029,13.3044,4.60131,2470.81,2023-10-26T06:54:13Z
2023-10-26T04:54:50Z,42.805,6.029,13.3048,4.60130,2470.833,2023-10-26T06:57:16Z
2023-10-26T04:57:53Z,42.805,6.029,13.3043,4.60132,2470.843,2023-10-26T07:00:19Z
2023-10-26T05:00:56Z,42.805,6.029,13.3053,4.60139,2470.833,2023-10-26T07:03:22Z
2023-10-26T05:03:59Z,42.805,6.029,13.3044,4.60132,2470.824,2023-10-26T07:06:25Z
2023-10-26T05:07:02Z,42.805,6.029,13.3047,4.60142,2470.833,2023-10-26T07:09:28Z
2023-10-26T05:10:06Z,42.805,6.029,13.3046,4.60127,2470.833,2023-10-26T07:12:31Z
2023-10-26T05:13:09Z,42.805,6.029,13.3049,4.60143,2470.871,2023-10-26T07:15:34Z
2023-10-26T05:16:12Z,42.805,6.029,13.3045,4.60129,2470.833,2023-10-26T07:18:37Z
2023-10-26T05:19:15Z,42.805,6.029,13.3050,4.60133,2470.857,2023-10-26T07:21:40Z
2023-10-26T05:22:18Z,42.805,6.029,13.3047,4.60132,2470.857,2023-10-26T07:24:43Z
2023-10-26T05:25:21Z,42.805,6.029,13.3043,4.60137,2470.833,2023-10-26T07:27:46Z
2023-10-26T05:28:24Z,42.805,6.029,13.3044,4.60132,2470.833,2023-10-26T07:30:49Z
2023-10-26T05:31:27Z,42.805,6.029,13.3047,4.60132,2470.81,2023-10-26T07:33:53Z
2023-10-26T05:34:30Z,42.805,6.029,13.3048,4.60129,2470.824,2023-10-26T07:36:56Z
2023-10-26T05:37:33Z,42.805,6.029,13.3046,4.60127,2470.833,2023-10-26T07:39:59Z
2023-10-26T05:40:36Z,42.805,6.029,13.3049,4.60146,2470.81,2023-10-26T07:43:02Z
2023-10-26T05:43:39Z,42.805,6.029,13.3043,4.60144,2470.857,2023-10-26T07:46:05Z
2023-10-26T05:46:43Z,42.805,6.029,13.3045,4.60130,2470.833,2023-10-26T07:49:08Z
2023-10-26T05:49:46Z,42.805,6.029,13.3043,4.60131,2470.857,2023-10-26T07:52:11Z
2023-10-26T05:52:49Z,42.805,6.029,13.3046,4.60137,2470.833,2023-10-26T07:55:14Z
2023-10-26T05:55:52Z,42.805,6.029,13.3051,4.60135,2470.824,2023-10-26T07:58:17Z
2023-10-26T05:58:55Z,42.805,6.029,13.3045,4.60132,2470.847,2023-10-26T08:01:20Z
2023-10-26T06:01:58Z,42.805,6.029,13.3046,4.60132,2470.833,2023-10-26T08:04:23Z
2023-10-26T06:05:01Z,42.805,6.029,13.3048,4.60140,2470.81,2023-10-26T08:07:26Z
2023-10-26T06:08:04Z,42.805,6.029,13.3046,4.60127,2470.857,2023-10-26T08:10:30Z
2023-10-26T06:11:07Z,42.805,6.029,13.3044,4.60139,2470.833,2023-10-26T08:13:33Z
2023-10-26T06:14:10Z,42.805,6.029,13.3047,4.60123,2470.8,2023-10-26T08:16:36Z
2023-10-26T06:17:13Z,42.805,6.029,13.3046,4.60125,2470.81,2023-10-26T08:19:39Z
2023-10-26T06:20:16Z,42.805,6.029,13.3043,4.60126,2470.833,2023-10-26T08:22:42Z
2023-10-26T06:23:19Z,42.805,6.029,13.3045,4.60141,2470.833,2023-10-26T08:25:45Z
2023-10-26T06:26:23Z,42.805,6.029,13.3045,4.60132,2470.81,2023-10-26T08:28:48Z
2023-10-26T06:29:26Z,42.805,6.029,13.3044,4.60137,2470.787,2023-10-26T08:31:51Z
2023-10-26T06:32:28Z,42.805,6.029,13.3046,4.60132,2470.81,2023-10-26T08:34:53Z
2023-10-26T06:35:31Z,42.805,6.029,13.3049,4.60128,2470.833,2023-10-26T08:37:56Z
2023-10-26T06:38:34Z,42.805,6.029,13.3050,4.60134,2470.81,2023-10-26T08:41:00Z
2023-10-26T06:41:37Z,42.805,6.029,13.3040,4.60127,2470.824,2023-10-26T08:44:03Z
2023-10-26T06:44:40Z,42.805,6.029,13.3042,4.60134,2470.857,2023-10-26T08:47:06Z
2023-10-26T06:47:43Z,42.805,6.029,13.3046,4.60125,2470.857,2023-10-26T08:50:09Z
2023-10-26T06:50:46Z,42.805,6.029,13.3045,4.60132,2470.847,2023-10-26T08:53:12Z
2023-10-26T06:53:49Z,42.805,6.029,13.3047,4.60125,2470.81,2023-10-26T08:56:15Z
2023-10-26T06:56:53Z,42.805,6.029,13.3044,4.60126,2470.81,2023-10-26T08:59:18Z
2023-10-26T06:59:56Z,42.805,6.029,13.3044,4.60127,2470.833,2023-10-26T09:02:21Z
2023-10-26T07:02:59Z,42.805,6.029,13.3048,4.60140,2470.81,2023-10-26T09:05:24Z
2023-10-26T07:06:02Z,42.805,6.029,13.3052,4.60132,2470.824,2023-10-26T09:08:27Z
2023-10-26T07:09:05Z,42.805,6.029,13.3047,4.60128,2470.824,2023-10-26T09:11:30Z
2023-10-26T07:12:08Z,42.805,6.029,13.3043,4.60127,2470.81,2023-10-26T09:14:33Z
2023-10-26T07:15:11Z,42.805,6.029,13.3044,4.60127,2470.833,2023-10-26T09:17:37Z
2023-10-26T07:18:14Z,42.805,6.029,13.3040,4.60126,2470.833,2023-10-26T09:20:40Z
2023-10-26T07:21:17Z,42.805,6.029,13.3048,4.60128,2470.833,2023-10-26T09:23:43Z
2023-10-26T07:24:20Z,42.805,6.029,13.3045,4.60127,2470.796,2023-10-26T09:26:46Z
2023-10-26T07:27:23Z,42.805,6.029,13.3048,4.60132,2470.8,2023-10-26T09:29:49Z
2023-10-26T07:30:26Z,42.805,6.029,13.3043,4.60133,2470.787,2023-10-26T09:32:52Z
2023-10-26T07:33:30Z,42.805,6.029,13.3045,4.60128,2470.81,2023-10-26T09:35:55Z
2023-10-26T07:36:33Z,42.805,6.029,13.3046,4.60135,2470.8,2023-10-26T09:38:58Z
2023-10-26T07:39:36Z,42.805,6.029,13.3051,4.60129,2470.81,2023-10-26T09:42:01Z
2023-10-26T07:42:39Z,42.805,6.029,13.3044,4.60128,2470.763,2023-10-26T09:45:04Z
2023-10-26T07:45:42Z,42.805,6.029,13.3046,4.60125,2470.81,2023-10-26T09:48:07Z
2023-10-26T07:48:45Z,42.805,6.029,13.3046,4.60127,2470.824,2023-10-26T09:51:10Z
2023-10-26T07:51:48Z,42.805,6.029,13.3041,4.60122,2470.787,2023-10-26T09:54:14Z
2023-10-26T07:54:51Z,42.805,6.029,13.3042,4.60134,2470.824,2023-10-26T09:57:17Z
2023-10-26T07:57:54Z,42.805,6.029,13.3044,4.60129,2470.787,2023-10-26T10:00:20Z
2023-10-26T08:00:57Z,42.805,6.029,13.3041,4.60142,2470.763,2023-10-26T10:03:23Z
2023-10-26T08:04:00Z,42.805,6.029,13.3045,4.60127,2470.777,2023-10-26T10:06:26Z
2023-10-26T08:07:03Z,42.805,6.029,13.3041,4.60126,2470.81,2023-10-26T10:09:29Z
2023-10-26T08:10:07Z,42.805,6.029,13.3049,4.60126,2470.787,2023-10-26T10:12:32Z
2023-10-26T08:13:10Z,42.805,6.029,13.3051,4.60130,2470.74,2023-10-26T10:15:35Z
2023-10-26T08:16:13Z,42.805,6.029,13.3048,4.60135,2470.777,2023-10-26T10:18:38Z
2023-10-26T08:19:16Z,42.805,6.029,13.3046,4.60135,2470.763,2023-10-26T10:21:41Z
2023-10-26T08:22:19Z,42.805,6.029,13.3048,4.60139,2470.74,2023-10-26T10:24:44Z
2023-10-26T08:25:22Z,42.805,6.029,13.3050,4.60142,2470.8,2023-10-26T10:27:47Z
2023-10-26T08:28:25Z,42.805,6.029,13.3047,4.60133,2470.763,2023-10-26T10:30:51Z
2023-10-26T08:31:27Z,42.805,6.029,13.3045,4.60122,2470.8,2023-10-26T10:33:53Z
2023-10-26T08:34:30Z,42.805,6.029,13.3044,4.60129,2470.74,2023-10-26T10:36:56Z
2023-10-26T08:37:33Z,42.805,6.029,13.3051,4.60136,2470.777,2023-10-26T10:39:59Z
2023-10-26T08:40:36Z,42.805,6.029,13.3043,4.60135,2470.777,2023-10-26T10:43:02Z
2023-10-26T08:43:39Z,42.805,6.029,13.3042,4.60134,2470.73,2023-10-26T10:46:05Z
2023-10-26T08:46:42Z,42.805,6.029,13.3048,4.60137,2470.74,2023-10-26T10:49:08Z
2023-10-26T08:49:46Z,42.805,6.029,13.3048,4.60122,2470.777,2023-10-26T10:52:11Z
2023-10-26T08:52:49Z,42.805,6.029,13.3046,4.60125,2470.777,2023-10-26T10:55:14Z
2023-10-26T08:55:52Z,42.805,6.029,13.3048,4.60132,2470.74,2023-10-26T10:58:17Z
2023-10-26T08:58:55Z,42.805,6.029,13.3047,4.60127,2470.777,2023-10-26T11:01:20Z
2023-10-26T09:01:58Z,42.805,6.029,13.3043,4.60131,2470.73,2023-10-26T11:04:23Z
2023-10-26T09:05:01Z,42.805,6.029,13.3041,4.60130,2470.74,2023-10-26T11:07:27Z
2023-10-26T09:08:04Z,42.805,6.029,13.3040,4.60126,2470.74,2023-10-26T11:10:30Z
2023-10-26T09:11:07Z,42.805,6.029,13.3051,4.60128,2470.754,2023-10-26T11:13:33Z
2023-10-26T09:14:10Z,42.805,6.029,13.3046,4.60132,2470.74,2023-10-26T11:16:36Z
2023-10-26T09:17:13Z,42.805,6.029,13.3041,4.60131,2470.74,2023-10-26T11:19:39Z
2023-10-26T09:20:16Z,42.805,6.029,13.3040,4.60124,2470.74,2023-10-26T11:22:42Z
2023-10-26T09:23:20Z,42.805,6.029,13.3052,4.60131,2470.754,2023-10-26T11:25:45Z
2023-10-26T09:26:23Z,42.805,6.029,13.3041,4.60114,2470.763,2023-10-26T11:28:48Z
2023-10-26T09:29:26Z,42.805,6.029,13.3046,4.60125,2470.74,2023-10-26T11:31:51Z
2023-10-26T09:32:29Z,42.805,6.029,13.3046,4.60128,2470.73,2023-10-26T11:34:54Z
2023-10-26T09:35:32Z,42.805,6.029,13.3043,4.60132,2470.74,2023-10-26T11:37:57Z
2023-10-26T09:38:35Z,42.805,6.029,13.3045,4.60135,2470.717,2023-10-26T11:41:00Z
2023-10-26T09:41:38Z,42.805,6.029,13.3043,4.60128,2470.74,2023-10-26T11:44:04Z
2023-10-26T09:44:41Z,42.805,6.029,13.3042,4.60129,2470.717,2023-10-26T11:47:07Z
2023-10-26T09:47:44Z,42.805,6.029,13.3041,4.60126,2470.74,2023-10-26T11:50:10Z
2023-10-26T09:50:47Z,42.805,6.029,13.3043,4.60135,2470.717,2023-10-26T11:53:13Z
2023-10-26T09:53:50Z,42.805,6.029,13.3046,4.60137,2470.707,2023-10-26T11:56:16Z
2023-10-26T09:56:53Z,42.805,6.029,13.3045,4.60132,2470.74,2023-10-26T11:59:19Z
2023-10-26T09:59:57Z,42.805,6.029,13.3043,4.60124,2470.73,2023-10-26T12:02:22Z
2023-10-26T10:03:00Z,42.805,6.029,13.3041,4.60134,2470.693,2023-10-26T12:05:25Z
2023-10-26T10:06:03Z,42.805,6.029,13.3044,4.60120,2470.73,2023-10-26T12:08:28Z
2023-10-26T10:09:06Z,42.805,6.029,13.3047,4.60130,2470.693,2023-10-26T12:11:31Z
2023-10-26T10:12:09Z,42.805,6.029,13.3043,4.60129,2470.707,2023-10-26T12:14:34Z
2023-10-26T10:15:12Z,42.805,6.029,13.3039,4.60126,2470.754,2023-10-26T12:17:37Z
2023-10-26T10:18:15Z,42.805,6.029,13.3047,4.60124,2470.717,2023-10-26T12:20:41Z
2023-10-26T10:21:18Z,42.805,6.029,13.3046,4.60132,2470.74,2023-10-26T12:23:44Z
2023-10-26T10:24:21Z,42.805,6.029,13.3046,4.60131,2470.717,2023-10-26T12:26:47Z
2023-10-26T10:27:24Z,42.805,6.029,13.3041,4.60126,2470.684,2023-10-26T12:29:50Z
2023-10-26T10:30:26Z,42.805,6.029,13.3043,4.60133,2470.707,2023-10-26T12:32:52Z
2023-10-26T10:33:29Z,42.805,6.029,13.3046,4.60128,2470.717,2023-10-26T12:35:55Z
2023-10-26T10:36:32Z,42.805,6.029,13.3044,4.60130,2470.693,2023-10-26T12:38:58Z
2023-10-26T10:39:35Z,42.805,6.029,13.3042,4.60119,2470.67,2023-10-26T12:42:01Z
2023-10-26T10:42:39Z,42.805,6.029,13.3042,4.60126,2470.74,2023-10-26T12:45:04Z
2023-10-26T10:45:42Z,42.805,6.029,13.3046,4.60132,2470.73,2023-10-26T12:48:07Z
2023-10-26T10:48:45Z,42.805,6.029,13.3043,4.60122,2470.693,2023-10-26T12:51:10Z
2023-10-26T10:51:48Z,42.805,6.029,13.3041,4.60122,2470.717,2023-10-26T12:54:13Z
2023-10-26T10:54:51Z,42.805,6.029,13.3048,4.60128,2470.693,2023-10-26T12:57:16Z
2023-10-26T10:57:54Z,42.805,6.029,13.3049,4.60129,2470.693,2023-10-26T13:00:19Z
2023-10-26T11:00:57Z,42.805,6.029,13.3046,4.60127,2470.693,2023-10-26T13:03:23Z
2023-10-26T11:04:00Z,42.805,6.029,13.3044,4.60130,2470.707,2023-10-26T13:06:26Z
2023-10-26T11:07:03Z,42.805,6.029,13.3041,4.60122,2470.693,2023-10-26T13:09:29Z
2023-10-26T11:10:06Z,42.805,6.029,13.3039,4.60122,2470.707,2023-10-26T13:12:32Z
2023-10-26T11:13:09Z,42.805,6.029,13.3045,4.60121,2470.693,2023-10-26T13:15:35Z
2023-10-26T11:16:12Z,42.805,6.029,13.3042,4.60118,2470.707,2023-10-26T13:18:38Z
2023-10-26T11:19:16Z,42.805,6.029,13.3046,4.60129,2470.67,2023-10-26T13:21:41Z
2023-10-26T11:22:19Z,42.805,6.029,13.3046,4.60129,2470.67,2023-10-26T13:24:44Z
2023-10-26T11:25:22Z,42.805,6.029,13.3046,4.60128,2470.67,2023-10-26T13:27:47Z
2023-10-26T11:28:25Z,42.805,6.029,13.3043,4.60121,2470.693,2023-10-26T13:30:50Z
2023-10-26T11:31:28Z,42.805,6.029,13.3043,4.60131,2470.67,2023-10-26T13:33:53Z
2023-10-26T11:34:31Z,42.805,6.029,13.3044,4.60126,2470.717,2023-10-26T13:36:56Z
2023-10-26T11:37:34Z,42.805,6.029,13.3047,4.60130,2470.684,2023-10-26T13:40:00Z
2023-10-26T11:40:37Z,42.805,6.029,13.3041,4.60124,2470.693,2023-10-26T13:43:03Z
2023-10-26T11:43:40Z,42.805,6.029,13.3049,4.60126,2470.646,2023-10-26T13:46:06Z
2023-10-26T11:46:43Z,42.805,6.029,13.3044,4.60137,2470.693,2023-10-26T13:49:09Z
2023-10-26T11:49:46Z,42.805,6.029,13.3044,4.60124,2470.693,2023-10-26T13:52:12Z
2023-10-26T11:52:50Z,42.805,6.029,13.3046,4.60127,2470.67,2023-10-26T13:55:15Z
2023-10-26T11:55:53Z,42.805,6.029,13.3042,4.60125,2470.693,2023-10-26T13:58:18Z
2023-10-26T11:58:56Z,42.805,6.029,13.3042,4.60126,2470.693,2023-10-26T14:01:21Z
2023-10-26T12:01:59Z,42.805,6.029,13.3044,4.60122,2470.679,2023-10-26T14:04:24Z
2023-10-26T12:05:02Z,42.805,6.029,13.3046,4.60127,2470.693,2023-10-26T14:07:27Z
2023-10-26T12:08:05Z,42.805,6.029,13.3043,4.60125,2470.684,2023-10-26T14:10:30Z
2023-10-26T12:11:08Z,42.805,6.029,13.3042,4.60129,2470.707,2023-10-26T14:13:33Z
2023-10-26T12:14:11Z,42.805,6.029,13.3043,4.60137,2470.684,2023-10-26T14:16:37Z
2023-10-26T12:17:14Z,42.805,6.029,13.3045,4.60127,2470.684,2023-10-26T14:19:40Z
2023-10-26T12:20:17Z,42.805,6.029,13.3044,4.60127,2470.693,2023-10-26T14:22:43Z
2023-10-26T12:23:20Z,42.805,6.029,13.3047,4.60126,2470.693,2023-10-26T14:25:46Z
2023-10-26T12:26:23Z,42.805,6.029,13.3043,4.60129,2470.684,2023-10-26T14:28:49Z
2023-10-26T12:29:27Z,42.805,6.029,13.3044,4.60129,2470.717,2023-10-26T14:31:52Z
2023-10-26T12:32:30Z,42.805,6.029,13.3046,4.60119,2470.693,2023-10-26T14:34:55Z
2023-10-26T12:35:33Z,42.805,6.029,13.3048,4.60128,2470.707,2023-10-26T14:37:58Z
2023-10-26T12:38:36Z,42.805,6.029,13.3042,4.60130,2470.693,2023-10-26T14:41:01Z
2023-10-26T12:41:39Z,42.805,6.029,13.3048,4.60125,2470.693,2023-10-26T14:44:04Z
2023-10-26T12:44:42Z,42.805,6.029,13.3046,4.60134,2470.707,2023-10-26T14:47:07Z
2023-10-26T12:47:45Z,42.805,6.029,13.3046,4.60135,2470.693,2023-10-26T14:50:10Z
2023-10-26T12:50:48Z,42.805,6.029,13.3041,4.60119,2470.73,2023-10-26T14:53:14Z
2023-10-26T12:53:51Z,42.805,6.029,13.3041,4.60129,2470.67,2023-10-26T14:56:17Z
2023-10-26T12:56:54Z,42.805,6.029,13.3041,4.60128,2470.717,2023-10-26T14:59:20Z
2023-10-26T12:59:57Z,42.805,6.029,13.3043,4.60125,2470.717,2023-10-26T15:02:23Z
2023-10-26T13:03:00Z,42.805,6.029,13.3045,4.60125,2470.74,2023-10-26T15:05:26Z
2023-10-26T13:06:04Z,42.805,6.029,13.3041,4.60125,2470.74,2023-10-26T15:08:29Z
2023-10-26T13:09:07Z,42.805,6.029,13.3044,4.60122,2470.693,2023-10-26T15:11:32Z
2023-10-26T13:12:10Z,42.805,6.029,13.3045,4.60125,2470.717,2023-10-26T15:14:35Z
2023-10-26T13:15:13Z,42.805,6.029,13.3046,4.60126,2470.74,2023-10-26T15:17:38Z
2023-10-26T13:18:16Z,42.805,6.029,13.3043,4.60125,2470.717,2023-10-26T15:20:41Z
2023-10-26T13:21:19Z,42.805,6.029,13.3044,4.60119,2470.763,2023-10-26T15:23:44Z
2023-10-26T13:24:22Z,42.805,6.029,13.3043,4.60122,2470.74,2023-10-26T15:26:48Z
2023-10-26T13:27:25Z,42.805,6.029,13.3045,4.60119,2470.717,2023-10-26T15:29:51Z
2023-10-26T13:30:28Z,42.805,6.029,13.3041,4.60122,2470.74,2023-10-26T15:32:54Z
2023-10-26T13:33:31Z,42.805,6.029,13.3041,4.60120,2470.74,2023-10-26T15:35:57Z
2023-10-26T13:36:34Z,42.805,6.029,13.3040,4.60119,2470.763,2023-10-26T15:39:00Z
2023-10-26T13:39:37Z,42.805,6.029,13.3046,4.60127,2470.754,2023-10-26T15:42:03Z
2023-10-26T13:42:41Z,42.805,6.029,13.3040,4.60120,2470.763,2023-10-26T15:45:06Z
2023-10-26T13:45:44Z,42.805,6.029,13.3046,4.60121,2470.74,2023-10-26T15:48:09Z
2023-10-26T13:48:47Z,42.805,6.029,13.3050,4.60128,2470.777,2023-10-26T15:51:12Z
2023-10-26T13:51:50Z,42.805,6.029,13.3040,4.60129,2470.777,2023-10-26T15:54:15Z
2023-10-26T13:54:53Z,42.805,6.029,13.3043,4.60122,2470.777,2023-10-26T15:57:18Z
2023-10-26T13:57:56Z,42.805,6.029,13.3046,4.60125,2470.777,2023-10-26T16:00:22Z
2023-10-26T14:00:59Z,42.805,6.029,13.3040,4.60121,2470.74,2023-10-26T16:03:25Z
2023-10-26T14:04:02Z,42.805,6.029,13.3043,4.60122,2470.777,2023-10-26T16:06:28Z
2023-10-26T14:07:05Z,42.805,6.029,13.3045,4.60130,2470.787,2023-10-26T16:09:31Z
2023-10-26T14:10:08Z,42.805,6.029,13.3045,4.60122,2470.777,2023-10-26T16:12:34Z
2023-10-26T14:13:11Z,42.805,6.029,13.3044,4.60121,2470.787,2023-10-26T16:15:37Z
2023-10-26T14:16:15Z,42.805,6.029,13.3041,4.60122,2470.777,2023-10-26T16:18:40Z
2023-10-26T14:19:18Z,42.805,6.029,13.3044,4.60119,2470.787,2023-10-26T16:21:43Z
2023-10-26T14:22:21Z,42.805,6.029,13.3038,4.60124,2470.81,2023-10-26T16:24:46Z
2023-10-26T14:25:24Z,42.805,6.029,13.3043,4.60121,2470.787,2023-10-26T16:27:49Z
2023-10-26T14:28:27Z,42.805,6.029,13.3041,4.60126,2470.81,2023-10-26T16:30:52Z
2023-10-26T14:31:30Z,42.805,6.029,13.3045,4.60122,2470.763,2023-10-26T16:33:55Z
2023-10-26T14:34:33Z,42.805,6.029,13.3043,4.60129,2470.81,2023-10-26T16:36:59Z
2023-10-26T14:37:36Z,42.805,6.029,13.3042,4.60117,2470.81,2023-10-26T16:40:02Z
2023-10-26T14:40:39Z,42.805,6.029,13.3041,4.60117,2470.81,2023-10-26T16:43:05Z
2023-10-26T14:43:42Z,42.805,6.029,13.3043,4.60123,2470.8,2023-10-26T16:46:08Z
2023-10-26T14:46:45Z,42.805,6.029,13.3041,4.60126,2470.787,2023-10-26T16:49:11Z
2023-10-26T14:49:48Z,42.805,6.029,13.3044,4.60127,2470.847,2023-10-26T16:52:14Z
2023-10-26T14:52:52Z,42.805,6.029,13.3043,4.60125,2470.824,2023-10-26T16:55:17Z
2023-10-26T14:55:55Z,42.805,6.029,13.3042,4.60125,2470.833,2023-10-26T16:58:20Z
2023-10-26T14:58:58Z,42.805,6.029,13.3043,4.60131,2470.847,2023-10-26T17:01:23Z
2023-10-26T15:02:01Z,42.805,6.029,13.3045,4.60123,2470.833,2023-10-26T17:04:26Z